FW7016 Weather Reports


Display with metric or nautical units.
time (UTC)temp
F
wind
direction
speed
MPH
gust
MPH
rain 1hr
in
rain 24hr
in
rain mn
in
humidity
%
barometer
mb
20260903111115 54 269 3.0 3.0 0.00 0.00 0.00 79 1017.5
20260903110611 54 233 1.0 2.0 0.00 0.00 0.00 80 1017.3
20260903110106 55 293 3.0 3.0 0.00 0.00 0.00 79 1017.3
20260903105601 55 298 3.0 6.0 0.00 0.00 0.00 78 1017.3
20260903105056 55 274 3.0 7.0 0.00 0.00 0.00 79 1017.3
20260903104555 56 306 3.0 5.0 0.00 0.00 0.00 76 1016.9
20260903104051 56 219 3.0 3.0 0.00 0.00 0.00 76 1017.3
20260903103547 56 227 3.0 5.0 0.00 0.00 0.00 76 1017.1
20260903103043 56 232 4.0 5.0 0.00 0.00 0.00 76 1017.0
20260903102538 57 219 4.0 5.0 0.00 0.00 0.00 75 1017.1
20260903102037 58 227 5.0 6.0 0.00 0.00 0.00 74 1017.3
20260903101532 58 240 5.0 6.0 0.00 0.00 0.00 74 1016.9
20260903101028 58 214 4.0 6.0 0.00 0.00 0.00 73 1017.3
20260903100522 59 209 3.0 6.0 0.00 0.00 0.00 72 1017.4
20260903100021 59 219 3.0 6.0 0.00 0.00 0.00 72 1017.1
20260903095519 59 241 4.0 6.0 0.00 0.00 0.00 72 1017.1
20260903095014 60 240 6.0 7.0 0.00 0.00 0.00 72 1017.4
20260903094514 60 245 4.0 5.0 0.00 0.00 0.00 70 1017.6
20260903094010 59 219 3.0 3.0 0.00 0.00 0.00 71 1017.3
20260903093510 58 213 3.0 5.0 0.00 0.00 0.00 73 1017.3
20260903093006 57 228 5.0 6.0 0.00 0.00 0.00 76 1017.6
20260903092505 56 195 0.0 1.0 0.00 0.00 0.00 81 1017.6
20260903092005 56 296 3.0 7.0 0.00 0.00 0.00 81 1017.6
20260903091503 57 185 3.0 6.0 0.00 0.00 0.00 80 1017.6
20260903090958 57 177 3.0 5.0 0.00 0.00 0.00 79 1017.4
20260903090454 58 190 2.0 3.0 0.00 0.00 0.00 77 1017.5
20260903085952 58 214 0.0 2.0 0.00 0.00 0.00 76 1017.5
20260903085450 57 206 1.0 1.0 0.00 0.00 0.00 76 1017.5
20260903084946 58 201 2.0 2.0 0.00 0.00 0.00 76 1017.4
20260903084444 57 213 3.0 5.0 0.00 0.00 0.00 76 1017.5
20260903083939 59 206 2.0 3.0 0.00 0.00 0.00 75 1017.3
20260903083435 60 227 3.0 5.0 0.00 0.00 0.00 73 1017.4
20260903082934 61 250 4.0 9.0 0.00 0.00 0.00 69 1017.9
20260903082429 60 240 7.0 11.0 0.00 0.00 0.00 69 1017.6
20260903081924 59 289 12.0 16.0 0.00 0.00 0.00 73 1017.7
20260903081419 58 265 7.0 9.0 0.00 0.00 0.00 75 1017.4
20260903080916 58 247 3.0 3.0 0.00 0.00 0.00 77 1017.4
20260903080412 57 229 3.0 3.0 0.00 0.00 0.00 78 1017.5
20260903075907 57 253 3.0 5.0 0.00 0.00 0.00 81 1017.3
20260903075403 57 271 3.0 5.0 0.00 0.00 0.00 81 1017.4
20260903074857 59 292 4.0 5.0 0.00 0.00 0.00 78 1017.1
20260903074356 61 217 2.0 3.0 0.00 0.00 0.00 73 1017.3
20260903073852 60 248 3.0 5.0 0.00 0.00 0.00 71 1017.4
20260903073347 60 291 5.0 6.0 0.00 0.00 0.00 75 1017.3
20260903072843 62 201 2.0 2.0 0.00 0.00 0.00 72 1017.3
20260903072339 64 217 3.0 3.0 0.00 0.00 0.00 69 1017.4
20260903071836 63 203 2.0 2.0 0.00 0.00 0.00 68 1017.5
20260903071331 62 181 1.0 1.0 0.00 0.00 0.00 70 1017.6
20260903070826 61 177 0.0 0.0 0.00 0.00 0.00 74 1017.6
20260903070321 60 177 0.0 0.0 0.00 0.00 0.00 77 1017.9
20260903065816 60 164 0.0 1.0 0.00 0.00 0.00 78 1017.7
20260903065315 61 186 0.0 0.0 0.00 0.00 0.00 77 1018.0
20260903064815 61 278 4.0 5.0 0.00 0.00 0.00 76 1018.0
20260903064310 61 253 3.0 5.0 0.00 0.00 0.00 76 1017.9
20260903063806 61 262 4.0 6.0 0.00 0.00 0.00 77 1018.0
20260903063301 61 266 5.0 7.0 0.00 0.00 0.00 79 1017.9
20260903062757 61 266 5.0 5.0 0.00 0.00 0.00 75 1018.0
20260903062256 61 259 3.0 5.0 0.00 0.00 0.00 74 1018.0
20260903061753 61 221 0.0 0.0 0.00 0.00 0.00 77 1018.1
20260903061252 62 167 0.0 0.0 0.00 0.00 0.00 77 1017.9
20260903060748 62 158 0.0 0.0 0.00 0.00 0.00 74 1018.0
20260903060247 61 153 1.0 2.0 0.00 0.00 0.00 75 1018.0
20260903055745 61 188 0.0 1.0 0.00 0.04 0.04 74 1018.0
20260903055243 61 181 1.0 2.0 0.00 0.04 0.04 76 1018.0
20260903054738 61 193 0.0 1.0 0.00 0.04 0.04 75 1018.0
20260903054233 62 204 1.0 2.0 0.00 0.04 0.04 76 1018.2
20260903053731 60 222 5.0 6.0 0.00 0.04 0.04 74 1018.1
20260903053230 60 211 5.0 5.0 0.00 0.04 0.04 81 1018.3
20260903052726 59 214 3.0 5.0 0.00 0.04 0.04 80 1018.4
20260903052221 59 223 4.0 6.0 0.00 0.04 0.04 81 1018.7
20260903051716 59 214 3.0 5.0 0.00 0.04 0.04 79 1018.6
20260903051212 60 218 2.0 2.0 0.00 0.04 0.04 78 1018.4
20260903050708 60 189 4.0 5.0 0.00 0.04 0.04 77 1018.2
20260903050206 61 189 3.0 5.0 0.00 0.04 0.04 76 1018.3
20260903045655 61 180 6.0 8.0 0.00 0.04 0.04 76 1018.6
20260903045152 63 124 10.0 11.0 0.00 0.04 0.04 74 1018.1
20260903044648 64 229 3.0 3.0 0.00 0.04 0.04 69 1017.9
20260903044143 64 196 5.0 8.0 0.00 0.04 0.04 68 1018.0
20260903043640 60 188 4.0 10.0 0.00 0.04 0.04 74 1018.0
20260903043139 61 269 5.0 8.0 0.00 0.04 0.04 79 1018.1
20260903042638 60 217 3.0 3.0 0.00 0.04 0.04 79 1018.1
20260903042133 59 219 1.0 2.0 0.00 0.04 0.04 83 1018.1
20260903041630 59 204 2.0 2.0 0.00 0.04 0.04 83 1018.0
20260903041126 60 214 3.0 5.0 0.00 0.04 0.04 81 1017.9
20260903040624 61 208 2.0 3.0 0.00 0.04 0.04 79 1018.2
20260903040121 61 155 4.0 5.0 0.00 0.04 0.04 77 1017.9
20260903035616 60 155 4.0 6.0 0.00 0.04 0.04 81 1017.9
20260903035112 60 180 2.0 2.0 0.00 0.04 0.04 80 1018.1
20260903034606 60 194 1.0 1.0 0.00 0.04 0.04 81 1018.2
20260903034101 59 178 2.0 3.0 0.00 0.04 0.04 83 1018.4
20260903033557 60 201 2.0 3.0 0.00 0.04 0.04 80 1018.6
20260903033052 61 206 1.0 3.0 0.00 0.04 0.04 78 1018.2
20260903032547 61 276 3.0 3.0 0.00 0.04 0.04 78 1017.7
20260903032042 62 281 3.0 3.0 0.00 0.04 0.04 76 1017.9
20260903031542 63 254 0.0 0.0 0.00 0.04 0.04 73 1018.0
20260903031037 62 206 0.0 0.0 0.00 0.04 0.04 71 1018.1
20260903030533 61 165 0.0 0.0 0.00 0.04 0.04 74 1018.3
20260903030029 61 199 0.0 0.0 0.00 0.04 0.04 75 1018.3
20260903025524 62 204 0.0 0.0 0.00 0.04 0.04 78 1018.3
20260903025020 62 200 0.0 2.0 0.00 0.04 0.04 73 1018.4
20260903024519 63 201 0.0 0.0 0.00 0.04 0.04 76 1018.6
20260903024013 64 178 0.0 0.0 0.00 0.04 0.04 73 1018.2
20260903023509 64 212 0.0 0.0 0.00 0.04 0.04 70 1018.4
20260903023004 64 183 0.0 0.0 0.00 0.04 0.04 71 1018.4
20260903022504 65 206 0.0 0.0 0.00 0.04 0.04 71 1018.3
20260903022002 64 161 0.0 0.0 0.00 0.04 0.04 67 1018.3
20260903021457 65 186 0.0 0.0 0.00 0.04 0.04 69 1018.2
20260903020952 64 168 0.0 0.0 0.00 0.04 0.04 67 1018.1
20260903020448 64 163 0.0 0.0 0.00 0.04 0.04 72 1018.1
20260903015942 63 169 0.0 0.0 0.00 0.04 0.04 74 1018.1
20260903015438 63 188 0.0 0.0 0.00 0.04 0.04 77 1018.2
20260903014933 63 125 0.0 0.0 0.00 0.04 0.04 76 1017.9
20260903014432 65 184 0.0 2.0 0.00 0.04 0.04 72 1017.9
20260903013927 67 73 3.0 5.0 0.00 0.04 0.04 64 1017.9
20260903013427 67 134 0.0 2.0 0.00 0.04 0.04 59 1017.6
20260903012926 66 101 5.0 6.0 0.00 0.04 0.04 62 1018.0
20260903012420 66 87 2.0 5.0 0.00 0.04 0.04 65 1018.0
20260903011919 67 109 4.0 5.0 0.00 0.04 0.04 60 1017.9
20260903011414 67 114 3.0 5.0 0.00 0.04 0.04 61 1018.2
20260903010909 67 95 0.0 2.0 0.00 0.04 0.04 60 1018.1
20260903010405 67 196 0.0 0.0 0.00 0.04 0.04 66 1018.6
20260903005902 67 221 0.0 3.0 0.00 0.04 0.04 58 1018.6
20260903005358 66 203 2.0 3.0 0.05 0.04 0.04 60 1018.9
20260903004854 65 278 5.0 7.0 0.05 0.04 0.04 61 1019.1
20260903004349 64 290 7.0 11.0 0.00 0.03 0.03 68 1019.7
20260903003844 64 228 6.0 10.0 0.00 0.03 0.03 71 1019.7
20260903003344 64 213 11.0 15.0 0.00 0.03 0.03 70 1019.6
20260903002838 63 214 11.0 13.0 0.07 0.03 0.03 71 1019.1
20260903002333 63 233 14.0 18.0 0.05 0.02 0.02 74 1019.7
20260903001828 64 235 14.0 21.0 0.12 0.02 0.02 74 1019.6
20260903001324 67 236 9.0 11.0 0.00 0.00 0.00 67 1019.6
20260903000823 67 227 7.0 11.0 0.00 0.00 0.00 64 1019.1
20260903000318 67 260 8.0 11.0 0.00 0.00 0.00 63 1018.6
20260902235816 67 262 8.0 9.0 0.00 0.00 0.00 65 1018.8
20260902235312 67 264 10.0 18.0 0.00 0.00 0.00 63 1018.2
20260902234812 68 312 16.0 22.0 0.00 0.00 0.00 63 1018.0
20260902234311 71 284 16.0 20.0 0.00 0.00 0.00 55 1018.7
20260902233810 73 282 13.0 20.0 0.00 0.00 0.00 46 1018.7
20260902233305 72 271 17.0 21.0 0.00 0.00 0.00 45 1018.4
20260902232804 72 312 15.0 17.0 0.00 0.00 0.00 46 1018.2
20260902232306 73 299 23.0 27.0 0.00 0.00 0.00 46 1017.9
20260902231803 73 286 21.0 27.0 0.00 0.00 0.00 43 1017.9
20260902231258 75 298 23.0 32.0 0.00 0.00 0.00 42 1017.6
20260902230753 78 245 11.0 17.0 0.00 0.00 0.00 40 1018.0
20260902230252 81 186 5.0 11.0 0.00 0.00 0.00 35 1017.0
20260902225747 82 192 14.0 17.0 0.00 0.00 0.00 32 1016.8
20260902225242 82 176 8.0 11.0 0.00 0.00 0.00 30 1016.9
20260902224740 83 164 13.0 17.0 0.00 0.00 0.00 32 1017.0
20260902224235 83 141 7.0 13.0 0.00 0.00 0.00 30 1016.9
20260902223731 84 192 9.0 15.0 0.00 0.00 0.00 30 1016.9
20260902223231 85 183 18.0 22.0 0.00 0.00 0.00 28 1016.9
20260902222725 85 194 12.0 18.0 0.00 0.00 0.00 32 1016.8
20260902222225 84 189 12.0 15.0 0.00 0.00 0.00 31 1016.7
20260902221720 84 179 21.0 24.0 0.00 0.00 0.00 29 1016.7
20260902221219 85 196 12.0 18.0 0.00 0.00 0.00 31 1016.8
20260902220715 85 185 11.0 15.0 0.00 0.00 0.00 28 1016.8
20260902220214 84 181 11.0 17.0 0.00 0.00 0.00 28 1016.8
20260902215710 84 209 17.0 20.0 0.00 0.00 0.00 29 1016.9
20260902215205 84 204 11.0 17.0 0.00 0.00 0.00 31 1016.8
20260902214700 85 209 15.0 18.0 0.00 0.00 0.00 31 1017.0
20260902214159 84 168 9.0 13.0 0.00 0.00 0.00 28 1017.0
20260902213655 84 189 10.0 20.0 0.00 0.00 0.00 28 1017.3
20260902213154 84 228 7.0 15.0 0.00 0.00 0.00 34 1017.0
20260902212649 84 204 11.0 15.0 0.00 0.00 0.00 32 1017.3
20260902212146 85 219 7.0 9.0 0.00 0.00 0.00 30 1017.5
20260902211643 85 170 10.0 18.0 0.00 0.00 0.00 29 1017.5
20260902211143 85 170 13.0 17.0 0.00 0.00 0.00 27 1017.7
20260902210642 84 170 16.0 17.0 0.00 0.00 0.00 26 1017.7
20260902210137 82 183 5.0 10.0 0.00 0.00 0.00 29 1017.7
20260902205636 82 222 8.0 9.0 0.00 0.00 0.00 31 1017.5
20260902205131 84 223 16.0 18.0 0.00 0.00 0.00 29 1017.7
20260902204626 83 203 8.0 15.0 0.00 0.00 0.00 33 1017.9
20260902204121 84 206 12.0 15.0 0.00 0.00 0.00 32 1018.0
20260902203617 84 214 7.0 11.0 0.00 0.00 0.00 28 1017.7
20260902203116 83 184 11.0 16.0 0.00 0.00 0.00 29 1018.4
20260902202612 84 210 12.0 15.0 0.00 0.00 0.00 32 1018.2
20260902202108 83 168 7.0 10.0 0.00 0.00 0.00 27 1018.3
20260902201604 83 251 9.0 14.0 0.00 0.00 0.00 31 1018.2
20260902201103 83 230 9.0 15.0 0.00 0.00 0.00 32 1018.2
20260902200558 84 206 8.0 17.0 0.00 0.00 0.00 32 1018.2
20260902200054 83 182 7.0 13.0 0.00 0.00 0.00 31 1018.4
20260902195550 83 221 9.0 13.0 0.00 0.00 0.00 33 1018.4
20260902195048 84 179 15.0 18.0 0.00 0.00 0.00 28 1018.4
20260902194548 84 218 9.0 17.0 0.00 0.00 0.00 33 1018.7
20260902194043 83 159 13.0 16.0 0.00 0.00 0.00 28 1018.6
20260902193540 84 199 11.0 16.0 0.00 0.00 0.00 28 1018.6
20260902193039 84 175 13.0 16.0 0.00 0.00 0.00 28 1018.7
20260902192538 82 189 10.0 16.0 0.00 0.00 0.00 27 1018.8
20260902192036 82 220 12.0 18.0 0.00 0.00 0.00 32 1018.8
20260902191532 83 236 11.0 18.0 0.00 0.00 0.00 30 1019.1
20260902191026 83 194 10.0 16.0 0.00 0.00 0.00 30 1019.0
20260902190522 83 218 13.0 18.0 0.00 0.00 0.00 29 1018.8
20260902190018 83 217 10.0 18.0 0.00 0.00 0.00 31 1019.0
20260902185513 83 189 9.0 14.0 0.00 0.00 0.00 29 1019.0
20260902185009 81 197 6.0 15.0 0.00 0.00 0.00 31 1019.1
20260902184504 82 221 18.0 21.0 0.00 0.00 0.00 33 1019.3
20260902183959 82 240 9.0 13.0 0.00 0.00 0.00 36 1019.4
20260902183455 81 235 12.0 20.0 0.00 0.00 0.00 32 1019.4
20260902182951 82 221 11.0 13.0 0.00 0.00 0.00 34 1019.4
20260902182447 82 238 10.0 13.0 0.00 0.00 0.00 36 1019.5
20260902181943 82 215 8.0 11.0 0.00 0.00 0.00 34 1019.5
20260902181438 82 199 12.0 16.0 0.00 0.00 0.00 31 1019.5
20260902180933 82 243 11.0 13.0 0.00 0.00 0.00 35 1019.6
20260902180428 83 223 12.0 15.0 0.00 0.00 0.00 30 1019.6
20260902175924 82 222 3.0 10.0 0.00 0.00 0.00 31 1019.7
20260902175418 82 257 12.0 14.0 0.00 0.00 0.00 32 1019.6
20260902174914 81 226 8.0 15.0 0.00 0.00 0.00 30 1019.9
20260902174405 82 209 4.0 7.0 0.00 0.00 0.00 33 1019.7
20260902173901 81 206 0.0 1.0 0.00 0.00 0.00 30 1019.9
20260902173400 81 212 4.0 10.0 0.00 0.00 0.00 31 1020.3
20260902172855 81 241 7.0 11.0 0.00 0.00 0.00 32 1019.9
20260902172354 81 280 8.0 10.0 0.00 0.00 0.00 32 1020.1
20260902171849 81 235 8.0 10.0 0.00 0.00 0.00 33 1020.4
20260902171344 81 284 11.0 13.0 0.00 0.00 0.00 32 1020.2
20260902170841 81 252 14.0 18.0 0.00 0.00 0.00 34 1020.6
20260902170336 80 248 8.0 11.0 0.00 0.00 0.00 32 1020.3
20260902165832 80 199 6.0 17.0 0.00 0.00 0.00 34 1020.1
20260902165331 81 248 12.0 21.0 0.00 0.00 0.00 33 1020.4
20260902164825 81 229 8.0 11.0 0.00 0.00 0.00 36 1020.7
20260902164320 80 272 9.0 11.0 0.00 0.00 0.00 32 1020.6
20260902163814 80 272 10.0 14.0 0.00 0.00 0.00 34 1020.6
20260902163309 79 232 7.0 10.0 0.00 0.00 0.00 37 1020.3
20260902162807 78 252 9.0 11.0 0.00 0.00 0.00 36 1020.6
20260902162306 79 25 12.0 16.0 0.00 0.00 0.00 35 1020.4
20260902161756 78 285 13.0 18.0 0.00 0.00 0.00 35 1020.2
20260902161252 76 273 7.0 9.0 0.00 0.00 0.00 40 1020.6
20260902160748 75 248 5.0 10.0 0.00 0.00 0.00 40 1020.3
20260902160243 75 247 7.0 11.0 0.00 0.00 0.00 39 1020.4
20260902155741 76 260 5.0 13.0 0.00 0.00 0.00 40 1020.6
20260902155240 76 259 7.0 11.0 0.00 0.00 0.00 40 1020.3
20260902154735 77 249 12.0 17.0 0.00 0.00 0.00 38 1020.3
20260902154230 77 263 11.0 14.0 0.00 0.00 0.00 38 1020.4
20260902153724 77 265 7.0 13.0 0.00 0.00 0.00 38 1020.6
20260902153223 77 264 9.0 14.0 0.00 0.00 0.00 39 1020.4
20260902152720 76 288 7.0 14.0 0.00 0.00 0.00 39 1020.2
20260902152215 76 252 9.0 14.0 0.00 0.00 0.00 41 1020.3
20260902151711 76 293 11.0 14.0 0.00 0.00 0.00 41 1020.1
20260902151205 75 4 7.0 11.0 0.00 0.00 0.00 41 1020.3
20260902150701 73 231 6.0 14.0 0.00 0.00 0.00 44 1020.3
20260902150156 73 312 9.0 11.0 0.00 0.00 0.00 44 1020.2
20260902145655 73 290 7.0 13.0 0.00 0.00 0.00 44 1020.4
20260902145155 72 300 10.0 15.0 0.00 0.00 0.00 45 1020.3
20260902144652 71 304 8.0 13.0 0.00 0.00 0.00 45 1020.3
20260902144147 71 305 12.0 16.0 0.00 0.00 0.00 45 1020.2
20260902143642 71 310 15.0 18.0 0.00 0.00 0.00 47 1020.0
20260902143137 70 310 11.0 17.0 0.00 0.00 0.00 47 1020.1
20260902142632 70 306 9.0 24.0 0.00 0.00 0.00 47 1020.1
20260902142129 69 298 12.0 15.0 0.00 0.00 0.00 50 1020.1
20260902141628 68 264 11.0 16.0 0.00 0.00 0.00 51 1020.2
20260902141124 67 256 11.0 13.0 0.00 0.00 0.00 53 1020.3
20260902140619 65 185 8.0 11.0 0.00 0.00 0.00 56 1020.4
20260902140114 64 263 7.0 10.0 0.00 0.00 0.00 59 1020.1
20260902135613 63 286 9.0 13.0 0.00 0.00 0.00 59 1020.4
20260902135108 63 248 1.0 8.0 0.00 0.00 0.00 62 1020.3
20260902134604 62 194 0.0 6.0 0.00 0.00 0.00 61 1020.2
20260902134104 60 199 1.0 9.0 0.00 0.00 0.00 62 1020.4
20260902133558 60 227 3.0 6.0 0.00 0.00 0.00 65 1020.1
20260902133058 59 250 2.0 8.0 0.00 0.00 0.00 65 1020.1
20260902132554 59 239 5.0 7.0 0.00 0.00 0.00 64 1020.6
20260902132049 57 242 4.0 5.0 0.00 0.00 0.00 67 1020.4
20260902131545 55 241 4.0 6.0 0.00 0.00 0.00 71 1020.4
20260902131039 54 208 3.0 3.0 0.00 0.00 0.00 74 1020.6
20260902130535 55 190 1.0 2.0 0.00 0.00 0.00 74 1020.1
20260902130030 56 196 0.0 2.0 0.00 0.00 0.00 69 1020.0
20260902125526 55 236 2.0 2.0 0.00 0.00 0.00 68 1020.1
20260902125021 54 189 0.0 1.0 0.00 0.00 0.00 69 1019.9
20260902124519 54 247 3.0 3.0 0.00 0.00 0.00 71 1020.2
20260902124019 54 268 3.0 3.0 0.00 0.00 0.00 70 1019.7
20260902123515 53 267 3.0 5.0 0.00 0.00 0.00 71 1020.0
20260902123014 53 270 3.0 5.0 0.00 0.00 0.00 72 1020.0
20260902122509 53 287 4.0 5.0 0.00 0.00 0.00 73 1019.9
20260902122004 53 277 5.0 6.0 0.00 0.00 0.00 73 1020.0
20260902121459 53 306 4.0 5.0 0.00 0.00 0.00 73 1019.9
20260902120954 53 284 4.0 5.0 0.00 0.00 0.00 73 1019.7
20260902120451 53 308 5.0 6.0 0.00 0.00 0.00 74 1019.9
20260902115950 54 301 5.0 5.0 0.00 0.00 0.00 73 1020.1
20260902115446 55 295 5.0 7.0 0.00 0.00 0.00 69 1019.6
20260902114942 54 280 6.0 7.0 0.00 0.00 0.00 71 1019.7
20260902114438 55 172 5.0 6.0 0.00 0.00 0.00 71 1019.9
20260902113933 55 11 6.0 7.0 0.00 0.00 0.00 72 1019.6
20260902113428 55 203 4.0 6.0 0.00 0.00 0.00 70 1019.6
20260902112928 55 252 1.0 2.0 0.00 0.00 0.00 72 1019.7
20260902112424 56 239 2.0 5.0 0.00 0.00 0.00 71 1019.7
20260902111920 56 277 3.0 5.0 0.00 0.00 0.00 71 1019.7
20260902111416 55 201 1.0 2.0 0.00 0.00 0.00 72 1019.7